ITHETF43 Weather Reports


time (UTC)temp
C
wind
direction
speed
KPH
gust
KPH
rain 1hr
cm
rain 24hr
cm
rain mn
cm
humidity
%
barometer
mb
20260508023046 4 0 0.0 0.0 0.00 0.00 0.00 88 1016.7
20260508021545 4 0 0.0 0.0 0.00 0.00 0.00 88 1016.7
20260508020050 4 0 0.0 0.0 0.00 0.00 0.00 87 1016.7
20260508014542 5 0 0.0 1.6 0.00 0.00 0.00 87 1016.6
20260508013052 5 0 0.0 0.0 0.00 0.00 0.00 87 1016.7
20260508011600 5 0 0.0 0.0 0.00 0.00 0.00 87 1016.8
20260508010056 5 0 0.0 1.6 0.00 0.00 0.00 87 1016.8
20260508004555 5 0 0.0 1.6 0.00 0.00 0.00 87 1016.8
20260508003108 6 0 0.0 1.6 0.00 0.00 0.00 87 1016.9
20260508001545 6 0 0.0 0.0 0.00 0.00 0.00 86 1017.1
20260508000050 6 0 0.0 1.6 0.00 0.00 0.00 86 1017.1
20260507234548 6 0 0.0 0.0 0.00 0.00 0.00 87 1017.1
20260507233044 7 0 0.0 0.0 0.00 0.00 0.00 86 1017.2
20260507231606 7 0 0.0 0.0 0.00 0.00 0.00 85 1017.4
20260507230052 7 0 0.0 1.6 0.00 0.00 0.00 85 1017.4
20260507224557 8 0 0.0 0.0 0.00 0.00 0.00 84 1017.4
20260507223050 8 0 0.0 1.6 0.00 0.00 0.00 84 1017.4
20260507221554 8 0 0.0 1.6 0.00 0.00 0.00 83 1017.4
20260507220051 8 0 0.0 3.2 0.00 0.00 0.00 83 1017.4
20260507214601 9 0 0.0 3.2 0.00 0.00 0.00 83 1017.4
20260507213055 9 138 0.0 3.2 0.00 0.00 0.00 83 1017.5
20260507211552 9 0 0.0 4.8 0.00 0.00 0.00 82 1017.6
20260507210054 9 0 0.0 3.2 0.00 0.00 0.00 81 1017.5
20260507204557 10 0 0.0 4.8 0.00 0.00 0.00 81 1017.5
20260507203052 10 0 0.0 4.8 0.00 0.00 0.00 80 1017.4
20260507201544 10 0 0.0 4.8 0.00 0.00 0.00 78 1017.1
20260507200042 10 149 0.0 4.8 0.00 0.00 0.00 77 1016.9
20260507194549 11 139 1.6 9.7 0.00 0.00 0.00 76 1016.8
20260507193052 11 0 1.6 6.4 0.00 0.00 0.00 76 1016.8
20260507191545 11 0 3.2 9.7 0.00 0.00 0.00 75 1016.6
20260507184551 11 0 1.6 8.0 0.00 0.00 0.00 73 1016.5
20260507183056 11 0 3.2 11.3 0.00 0.00 0.00 72 1016.5
20260507181549 12 177 3.2 11.3 0.00 0.00 0.00 71 1016.5
20260507180053 12 141 3.2 11.3 0.00 0.00 0.00 70 1016.2
20260507174546 12 123 3.2 14.5 0.00 0.00 0.00 69 1016.2
20260507173056 12 132 1.6 9.7 0.00 0.00 0.00 67 1016.1
20260507171557 12 198 1.6 8.0 0.00 0.00 0.00 66 1016.1
20260507170052 12 144 3.2 16.1 0.00 0.00 0.00 65 1016.0
20260507164554 13 0 1.6 17.7 0.00 0.00 0.00 64 1016.0
20260507163048 13 225 3.2 11.3 0.00 0.00 0.00 63 1016.0
20260507161553 13 205 1.6 8.0 0.00 0.00 0.00 61 1016.1
20260507160051 13 0 1.6 8.0 0.00 0.00 0.00 62 1016.1
20260507154544 13 192 1.6 11.3 0.00 0.00 0.00 62 1016.1
20260507153055 13 219 3.2 11.3 0.00 0.00 0.00 62 1016.0
20260507151549 13 279 3.2 12.9 0.00 0.00 0.00 62 1016.0
20260507150047 13 199 1.6 12.9 0.00 0.00 0.00 61 1016.0
20260507144550 14 162 3.2 11.3 0.00 0.00 0.00 59 1016.0
20260507143051 15 155 1.6 4.8 0.00 0.00 0.00 54 1015.9
20260507141542 15 0 1.6 9.7 0.00 0.00 0.00 54 1016.0
20260507140108 15 201 1.6 9.7 0.00 0.00 0.00 54 1016.1
20260507134550 15 169 1.6 6.4 0.00 0.00 0.00 53 1016.2
20260507133057 15 252 1.6 8.0 0.00 0.00 0.00 55 1016.2
20260507131603 15 119 1.6 6.4 0.00 0.00 0.00 55 1016.2
20260507130108 15 0 0.0 6.4 0.00 0.00 0.00 56 1016.3
20260507124552 14 101 1.6 8.0 0.00 0.00 0.00 57 1016.3
20260507123057 14 162 1.6 8.0 0.00 0.00 0.00 58 1016.4
20260507121550 13 113 1.6 8.0 0.00 0.00 0.00 58 1016.3
20260507120048 13 174 0.0 8.0 0.00 0.00 0.00 59 1016.4
20260507114547 13 71 1.6 9.7 0.00 0.00 0.00 60 1016.4
20260507113044 13 60 1.6 4.8 0.00 0.00 0.00 61 1016.4
20260507111547 13 167 3.2 11.3 0.00 0.00 0.00 60 1016.7
20260507110049 14 136 1.6 9.7 0.00 0.00 0.00 58 1016.7
20260507104550 15 128 1.6 9.7 0.00 0.00 0.00 56 1016.8
20260507103054 15 213 1.6 11.3 0.00 0.00 0.00 58 1016.8
20260507101553 15 140 4.8 11.3 0.00 0.00 0.00 56 1016.9
20260507100051 15 0 0.0 11.3 0.00 0.00 0.00 59 1016.8
20260507094554 14 155 4.8 11.3 0.00 0.00 0.00 58 1016.8
20260507093052 13 241 3.2 11.3 0.00 0.00 0.00 63 1016.8
20260507091559 12 0 1.6 6.4 0.00 0.00 0.00 67 1016.8
20260507090049 12 152 0.0 4.8 0.00 0.00 0.00 69 1016.8
20260507084551 12 0 0.0 4.8 0.00 0.00 0.00 69 1016.8
20260507083056 12 108 1.6 11.3 0.00 0.00 0.00 67 1016.8
20260507081544 11 162 0.0 4.8 0.00 0.00 0.00 69 1016.7
20260507080114 11 149 1.6 6.4 0.00 0.00 0.00 69 1016.8
20260507074556 11 117 1.6 9.7 0.00 0.00 0.00 69 1016.6
20260507073058 11 113 1.6 6.4 0.00 0.00 0.00 71 1016.6
20260507071600 10 122 0.0 6.4 0.00 0.00 0.00 76 1016.6
20260507070048 10 123 3.2 8.0 0.00 0.00 0.00 78 1016.5
20260507064551 9 146 1.6 8.0 0.00 0.00 0.00 80 1016.4
20260507063046 8 0 0.0 6.4 0.00 0.00 0.00 84 1016.3
20260507061552 8 0 0.0 0.0 0.00 0.00 0.00 88 1016.4
20260507060043 7 0 0.0 0.0 0.00 0.00 0.00 90 1016.3
20260507054604 7 0 0.0 0.0 0.00 0.00 0.00 91 1016.2
20260507053049 7 0 0.0 0.0 0.00 0.00 0.00 91 1016.1
20260507051552 6 0 0.0 0.0 0.00 0.00 0.00 91 1016.0
20260507050051 6 0 0.0 0.0 0.00 0.00 0.00 91 1016.0
20260507044556 6 0 0.0 0.0 0.00 0.00 0.00 90 1015.9
20260507043050 6 0 0.0 0.0 0.00 0.00 0.00 90 1015.8
20260507041559 6 0 0.0 0.0 0.00 0.00 0.00 89 1015.7
20260507040104 6 0 0.0 0.0 0.00 0.00 0.00 89 1015.6
20260507034553 7 0 0.0 0.0 0.00 0.00 0.00 89 1015.6
20260507033045 7 0 0.0 0.0 0.00 0.00 0.00 88 1015.6
20260507031546 7 0 0.0 0.0 0.00 0.00 0.00 88 1015.6
20260507030048 7 0 0.0 0.0 0.00 0.00 0.00 88 1015.6
20260507024544 7 0 0.0 0.0 0.00 0.00 0.00 88 1015.6